Weather History for Quincy Muni, Quincy, FL, FL

Change the Weather History Date:

Friday, May 2, 2014

  Actual Average (KTLH) Record (KTLH)
Temperature  
Mean Temperature 62 °F 70 °F  
Max Temperature 66 °F 84 °F 96 °F (1990)
Min Temperature 57 °F 57 °F 44 °F (1988)
Degree Days  
Heating Degree Days 4    
Month to date heating degree days  
Since 1 July heating degree days  
Cooling Degree Days 0    
Month to date cooling degree days  
Year to date cooling degree days  
Growing Degree Days 12 (Base 50)    
Moisture  
Dew Point 56 °F    
Average Humidity 88    
Maximum Humidity 100    
Minimum Humidity 64    
Precipitation  
Precipitation 0.05 in 0.09 in 0.94 in (1940)
Month to date precipitation 0.17  
Year to date precipitation 18.36  
Sea Level Pressure  
Sea Level Pressure 29.99 in    
Wind  
Wind Speed 2 mph (NNW)    
Max Wind Speed 8 mph    
Max Gust Speed -    
Visibility 9 miles    
Events      
T = Trace of Precipitation, MM = Missing Value Source: NWS Daily Summary

Daily Weather History Graph

Daily Weather History Graph

Search for Another Location

Airport:

Trip Planner

Search our weather history database for the weather conditions in past years. The results will help you decide how hot, cold, wet, or windy it might be!

Date:

Astronomy

May. 02, 2014 Rise Set
Actual Time 6:53 AM EDT 8:17 PM EDT
Civil Twilight 6:28 AM EDT 8:42 PM EDT
Nautical Twilight 5:57 AM EDT 9:13 PM EDT
Astronomical Twilight 5:25 AM EDT 9:45 PM EDT
Moon 9:34 AM EDT (5/2) 11:35 PM EDT (5/2)
Length of Visible Light 14h 14m
Length of Day
13h 23m
Waxing Crescent, 12% of the Moon is Illuminated
May 2
Waxing Crescent
May 6
First Quarter
May 14
Full
May 21
Last Quarter
May 28
New

Hourly Weather History & Observations

Time (EDT) Temp. Dew Point Humidity Pressure Visibility Wind Dir Wind Speed Gust Speed Precip Events Conditions
12:15 AM 57.2 °F 55.4 °F 94% 30.03 in 7.0 mi Calm Calm - N/A   Mostly Cloudy
12:35 AM 57.2 °F 55.4 °F 94% 30.01 in 7.0 mi Calm Calm - N/A   Partly Cloudy
12:55 AM 57.2 °F 55.4 °F 94% 30.02 in 8.0 mi NW 3.5 mph - N/A   Clear
1:15 AM 57.2 °F 55.4 °F 94% 30.02 in 10.0 mi Calm Calm - N/A   Clear
1:35 AM 57.2 °F 55.4 °F 94% 30.02 in 10.0 mi NW 3.5 mph - N/A   Partly Cloudy
1:55 AM 57.2 °F 55.4 °F 94% 30.02 in 10.0 mi NW 3.5 mph - N/A   Scattered Clouds
2:15 AM 57.2 °F 55.4 °F 94% 30.01 in 9.0 mi NW 4.6 mph - N/A   Mostly Cloudy
2:35 AM 57.2 °F 55.4 °F 94% 30.00 in 10.0 mi Calm Calm - N/A   Overcast
2:55 AM 57.2 °F 55.4 °F 94% 30.01 in 5.0 mi West 6.9 mph - N/A   Overcast
3:15 AM 57.2 °F 55.4 °F 94% 30.02 in 10.0 mi Calm Calm - N/A   Overcast
3:35 AM 57.2 °F 55.4 °F 94% 30.02 in 10.0 mi WNW 5.8 mph - N/A   Overcast
3:55 AM 57.2 °F 55.4 °F 94% 30.03 in 10.0 mi WNW 5.8 mph - N/A   Overcast
4:15 AM 57.2 °F 55.4 °F 94% 30.02 in 10.0 mi NW 4.6 mph - N/A   Overcast
4:35 AM 57.2 °F 55.4 °F 94% 30.01 in 6.0 mi Calm Calm - N/A   Overcast
4:55 AM 57.2 °F 55.4 °F 94% 30.00 in 9.0 mi Calm Calm - N/A   Overcast
5:15 AM 57.2 °F 55.4 °F 94% 30.01 in 5.0 mi Calm Calm - 0.01 in   Overcast
5:55 AM 57.2 °F 55.4 °F 94% 29.99 in 5.0 mi North 3.5 mph - 0.01 in   Overcast
6:15 AM 57.2 °F 57.2 °F 100% 30.00 in 9.0 mi NW 3.5 mph - N/A   Overcast
6:35 AM 57.2 °F 57.2 °F 100% 30.00 in 7.0 mi Calm Calm - 0.01 in   Overcast
6:55 AM 57.2 °F 55.4 °F 94% 30.00 in 5.0 mi NNW 4.6 mph - 0.01 in   Overcast
7:15 AM 57.2 °F 57.2 °F 100% 30.01 in 5.0 mi Calm Calm - N/A   Overcast
7:55 AM 57.2 °F 55.4 °F 94% 30.02 in 7.0 mi NW 3.5 mph - N/A   Mostly Cloudy
8:15 AM 57.2 °F 55.4 °F 94% 30.02 in 8.0 mi NNW 3.5 mph - N/A   Overcast
8:35 AM 57.2 °F 55.4 °F 94% 30.03 in 9.0 mi WNW 5.8 mph - N/A   Overcast
8:55 AM 57.2 °F 55.4 °F 94% 30.03 in 7.0 mi Calm Calm - N/A   Overcast
9:15 AM 59.0 °F 57.2 °F 94% 30.02 in 7.0 mi North 3.5 mph - N/A   Mostly Cloudy
9:35 AM 59.0 °F 55.4 °F 88% 30.01 in 9.0 mi NNE 4.6 mph - N/A   Overcast
9:55 AM 59.0 °F 55.4 °F 88% 30.01 in 10.0 mi Calm Calm - N/A   Overcast
10:15 AM 59.0 °F 55.4 °F 88% 30.00 in 10.0 mi ENE 3.5 mph - N/A   Mostly Cloudy
10:35 AM 59.0 °F 57.2 °F 94% 29.99 in 10.0 mi ENE 3.5 mph - N/A   Clear
10:55 AM 62.6 °F 57.2 °F 82% 29.99 in 10.0 mi NE 8.1 mph - N/A   Clear
11:15 AM 64.4 °F 53.6 °F 68% 29.99 in 10.0 mi NE 6.9 mph - N/A   Clear
11:35 AM 64.4 °F 53.6 °F 68% 30.00 in 10.0 mi NE 6.9 mph - N/A   Partly Cloudy
11:55 AM 64.4 °F 55.4 °F 73% 30.00 in 10.0 mi ENE 4.6 mph - N/A   Mostly Cloudy
12:15 PM 66.2 °F 53.6 °F 64% 30.00 in 10.0 mi ENE 5.8 mph - N/A   Overcast
12:35 PM 66.2 °F 53.6 °F 64% 29.99 in 10.0 mi ENE 5.8 mph - N/A   Overcast
12:55 PM 66.2 °F 53.6 °F 64% 29.99 in 10.0 mi ENE 5.8 mph - N/A   Overcast
1:15 PM 66.2 °F 53.6 °F 64% 30.00 in 10.0 mi SE 3.5 mph - N/A   Overcast
1:35 PM 62.6 °F 57.2 °F 82% 30.00 in 1.2 mi SSE 4.6 mph - 0.02 in   Overcast
1:55 PM 60.8 °F 57.2 °F 88% 29.99 in 7.0 mi SE 4.6 mph - 0.03 in   Mostly Cloudy
2:15 PM 60.8 °F 57.2 °F 88% 29.98 in 10.0 mi Calm Calm - N/A   Overcast
2:35 PM 62.6 °F 55.4 °F 77% 29.98 in 10.0 mi Calm Calm - N/A   Overcast
2:55 PM 62.6 °F 55.4 °F 77% 29.99 in 10.0 mi Calm Calm - N/A   Overcast
3:15 PM 62.6 °F 55.4 °F 77% 29.98 in 10.0 mi Calm Calm - N/A   Overcast
3:35 PM 64.4 °F 55.4 °F 73% 29.98 in 10.0 mi Calm Calm - N/A   Overcast
3:55 PM 64.4 °F 55.4 °F 73% 29.97 in 10.0 mi Calm Calm - N/A   Overcast
4:35 PM 64.4 °F 55.4 °F 73% 29.96 in 10.0 mi Calm Calm - N/A   Overcast
4:55 PM 64.4 °F 55.4 °F 73% 29.96 in 10.0 mi West 4.6 mph - N/A   Overcast
6:15 PM 62.6 °F 57.2 °F 82% 29.95 in 10.0 mi Calm Calm - N/A   Overcast
6:35 PM 62.6 °F 57.2 °F 82% 29.96 in 10.0 mi Calm Calm - N/A   Overcast
6:55 PM 62.6 °F 59.0 °F 88% 29.95 in 10.0 mi Calm Calm - N/A   Overcast
7:15 PM 62.6 °F 59.0 °F 88% 29.95 in 10.0 mi Calm Calm - N/A   Scattered Clouds
7:35 PM 62.6 °F 59.0 °F 88% 29.96 in 10.0 mi Calm Calm - N/A   Mostly Cloudy
7:55 PM 62.6 °F 59.0 °F 88% 29.97 in 10.0 mi Calm Calm - N/A   Overcast
8:35 PM 60.8 °F 59.0 °F 94% 29.97 in 10.0 mi South 3.5 mph - N/A   Overcast
8:55 PM 60.8 °F 59.0 °F 94% 29.97 in 10.0 mi Calm Calm - N/A   Overcast
9:15 PM 59.0 °F 59.0 °F 100% 29.96 in 9.0 mi SSE 3.5 mph - N/A   Overcast
9:35 PM 59.0 °F 57.2 °F 94% 29.97 in 10.0 mi Calm Calm - N/A   Partly Cloudy
9:55 PM 59.0 °F 57.2 °F 94% 29.96 in 10.0 mi Calm Calm - N/A   Partly Cloudy
10:15 PM 57.2 °F 57.2 °F 100% 29.97 in 10.0 mi Calm Calm - N/A   Clear
10:35 PM 57.2 °F 57.2 °F 100% 29.99 in 8.0 mi West 3.5 mph - N/A   Clear
10:55 PM 57.2 °F 57.2 °F 100% 29.99 in 10.0 mi West 3.5 mph - N/A   Clear
11:15 PM 57.2 °F 57.2 °F 100% 30.00 in 10.0 mi West 4.6 mph - N/A   Partly Cloudy
11:55 PM 57.2 °F 55.4 °F 94% 29.99 in 8.0 mi Calm Calm - N/A   Mostly Cloudy